Location: Nena
(32.3271°N, 96.8558°W)
Time: 03:48:25
(UTC+00:00)

Tiangong - Visible Passes

Search period start: 01 February 2023 00:00
Search period end: 11 February 2023 00:00
Orbit: 383 x 386 km, 41.5° (Epoch: 31 January)

Date Brightness Start Highest point End Pass type
(mag) Time Alt. Az. Time Alt. Az. Time Alt. Az.
01 Feb 0.8 01:51:46 10° WSW 01:53:18 13° SW 01:54:20 11° SSW visible
02 Feb 0.1 00:51:11 10° W 00:53:52 25° SW 00:56:32 10° SSE visible
04 Feb 1.1 00:29:45 10° WSW 00:31:12 13° SW 00:32:39 10° SSW visible
10 Feb 0.8 12:39:14 10° S 12:41:15 16° SE 12:43:16 10° E visible
